Location: Willingham
(52.3167°N, 0.0667°E)
Time: 07:20:37
(UTC+00:00)

Cosmos 1125 Rocket - Pass Details

Date: 19 May 2025
Orbit: 753 x 776 km, 74.0° (Epoch: 18 June)

Event Time Altitude Azimuth Distance (km) Brightness Sun altitude
Rises 21:01:04 0° 333° (NNW) 3,269 8.6 -8.3°
Reaches altitude 10° 21:03:28 10° 332° (NNW) 2,338 7.5 -8.5°
Maximum altitude 21:08:46 76° 248° (WSW) 805 3.7 -9.1°
Enters shadow 21:14:02 10° 163° (SSE) 2,318 5.4 -9.6°
